Weather History for Eagle River, WI

Change the Weather History Date:

Thursday, February 21, 2013

  Actual Average Record
Temperature  
Mean Temperature 10 °F -  
Max Temperature 26 °F 29 °F 48 °F (2007)
Min Temperature -7 °F 8 °F -23 °F (2008)
Degree Days  
Heating Degree Days 56    
Moisture  
Dew Point 8 °F    
Average Humidity 79    
Maximum Humidity 100    
Minimum Humidity 59    
Precipitation  
Precipitation 0.01 in - - ()
Sea Level Pressure  
Sea Level Pressure 30.29 in    
Wind  
Wind Speed 5 mph (NE)    
Max Wind Speed 15 mph    
Max Gust Speed 21 mph    
Visibility 9 miles    
Events Snow    
Averages and records for this station are not official NWS values.
T = Trace of Precipitation, MM = Missing Value Source: NWS Daily Summary

Daily Weather History Graph

Daily Weather History Graph

Search for Another Location

Airport:

Trip Planner

Search our weather history database for the weather conditions in past years. The results will help you decide how hot, cold, wet, or windy it might be!

Date:

Astronomy

Feb. 21, 2013 Rise Set
Actual Time 6:49 AM CST 5:32 PM CST
Civil Twilight 6:19 AM CST 6:02 PM CST
Nautical Twilight 5:44 AM CST 6:37 PM CST
Astronomical Twilight 5:09 AM CST 7:12 PM CST
Moon 1:39 PM CST 4:02 AM CST
Length of Visible Light 11h 43m
Length of Day
10h 43m
Waxing Gibbous, 84% of the Moon is Illuminated
Feb 21
Waxing Gibbous
Feb 25
Full
Mar 4
Last Quarter
Mar 11
New
Mar 19
First Quarter

Hourly Weather History & Observations

Time (CST) Temp. Windchill Dew Point Humidity Pressure Visibility Wind Dir Wind Speed Gust Speed Precip Events Conditions
12:15 AM 1.4 °F - -4.0 °F 78% 30.31 in 10.0 mi Calm Calm - N/A   Clear
12:35 AM -4.0 °F - -7.6 °F 85% 30.32 in 10.0 mi Calm Calm - N/A   Clear
12:55 AM -4.0 °F - -7.6 °F 85% 30.32 in 10.0 mi Calm Calm - N/A   Clear
1:15 AM -5.8 °F -14.5 °F -9.4 °F 84% 30.32 in 10.0 mi North 3.5 mph - N/A   Clear
1:35 AM -7.6 °F - -13.0 °F 77% 30.33 in 10.0 mi Calm Calm - N/A   Clear
1:55 AM -5.8 °F - -9.4 °F 84% 30.34 in 10.0 mi Calm Calm - N/A   Clear
2:15 AM -5.8 °F -14.5 °F -9.4 °F 84% 30.34 in 10.0 mi NNE 3.5 mph - N/A   Mostly Cloudy
2:35 AM -2.2 °F -10.4 °F -5.8 °F 85% 30.34 in 10.0 mi NNE 3.5 mph - N/A   Overcast
2:55 AM -0.4 °F -8.3 °F -4.0 °F 85% 30.35 in 10.0 mi NNE 3.5 mph - N/A   Overcast
3:15 AM 3.2 °F -6.2 °F -0.4 °F 85% 30.35 in 10.0 mi North 4.6 mph - N/A   Overcast
3:35 AM 3.2 °F -6.2 °F -0.4 °F 85% 30.35 in 10.0 mi NNE 4.6 mph - N/A   Overcast
3:55 AM 3.2 °F -6.2 °F -0.4 °F 85% 30.36 in 10.0 mi NNE 4.6 mph - N/A   Overcast
4:15 AM 5.0 °F -10.0 °F 1.4 °F 85% 30.36 in 10.0 mi NNE 10.4 mph - N/A   Overcast
4:35 AM 5.0 °F -6.9 °F 1.4 °F 85% 30.36 in 10.0 mi NNE 6.9 mph - N/A   Overcast
4:55 AM 5.0 °F -8.1 °F 1.4 °F 85% 30.37 in 10.0 mi NNE 8.1 mph - N/A   Overcast
5:15 AM 5.0 °F -4.1 °F 1.4 °F 85% 30.39 in 10.0 mi NNE 4.6 mph - N/A   Overcast
5:35 AM 5.0 °F -2.1 °F 1.4 °F 85% 30.39 in 3.0 mi North 3.5 mph - N/A Snow Light Snow
5:55 AM 6.8 °F -0.1 °F 3.2 °F 85% 30.40 in 10.0 mi North 3.5 mph - N/A Snow Light Snow
6:15 AM 6.8 °F -4.8 °F 3.2 °F 85% 30.39 in 10.0 mi NNE 6.9 mph - N/A   Overcast
6:35 AM 6.8 °F -5.9 °F 3.2 °F 85% 30.39 in 10.0 mi NNE 8.1 mph - N/A Snow Light Snow
6:55 AM 6.8 °F -6.9 °F 3.2 °F 85% 30.37 in 7.0 mi NNE 9.2 mph - N/A   Overcast
7:15 AM 6.8 °F -6.9 °F 3.2 °F 85% 30.36 in 7.0 mi NE 9.2 mph - N/A Snow Light Snow
7:35 AM 8.6 °F -7.0 °F 3.2 °F 79% 30.35 in 3.0 mi NE 12.7 mph - N/A Snow Light Snow
7:55 AM 8.6 °F -3.7 °F 5.0 °F 85% 30.32 in 7.0 mi NE 8.1 mph - N/A Snow Light Snow
8:15 AM 8.6 °F -5.5 °F 5.0 °F 85% 30.31 in 5.0 mi ENE 10.4 mph - N/A Snow Light Snow
8:35 AM 10.4 °F -4.8 °F 5.0 °F 79% 30.29 in 5.0 mi NE 12.7 mph 20.7 mph N/A   Overcast
8:55 AM 10.4 °F - 6.8 °F 85% 30.36 in 2.5 mi Calm Calm - N/A Snow Light Snow
9:15 AM 12.2 °F - 5.0 °F 73% 30.39 in 1.2 mi Calm Calm - N/A Snow Light Snow
9:35 AM 12.2 °F - 6.8 °F 79% 30.40 in 1.2 mi Calm Calm - N/A Snow Light Snow
9:55 AM 12.2 °F - 6.8 °F 79% 30.39 in 3.0 mi Calm Calm - N/A Snow Light Snow
10:15 AM 14.0 °F - 6.8 °F 73% 30.38 in 7.0 mi Calm Calm - N/A Snow Light Snow
10:35 AM 15.8 °F 8.6 °F 8.6 °F 73% 30.36 in 10.0 mi North 4.6 mph - 0.01 in   Clear
10:55 AM 17.6 °F 9.3 °F 8.6 °F 68% 30.35 in 10.0 mi NNE 5.8 mph - 0.01 in   Clear
11:15 AM 19.4 °F 12.8 °F 8.6 °F 63% 30.35 in 10.0 mi ENE 4.6 mph - N/A   Clear
11:35 AM 19.4 °F 9.5 °F 10.4 °F 68% 30.34 in 10.0 mi ENE 8.1 mph - N/A   Clear
11:55 AM 21.2 °F 12.6 °F 10.4 °F 63% 30.34 in 10.0 mi ENE 6.9 mph - N/A   Clear
12:15 PM 21.2 °F 11.7 °F 10.4 °F 63% 30.33 in 10.0 mi NE 8.1 mph - N/A   Clear
12:35 PM 21.2 °F 14.9 °F 10.4 °F 63% 30.33 in 10.0 mi NE 4.6 mph - N/A   Clear
12:55 PM 23.0 °F 15.8 °F 12.2 °F 63% 30.32 in 10.0 mi North 5.8 mph - N/A   Clear
1:15 PM 24.8 °F 16.9 °F 12.2 °F 59% 30.31 in 10.0 mi NE 6.9 mph - N/A   Clear
1:35 PM 24.8 °F 17.9 °F 12.2 °F 59% 30.29 in 10.0 mi NE 5.8 mph - N/A   Clear
1:55 PM 24.8 °F 16.9 °F 14.0 °F 64% 30.28 in 10.0 mi NE 6.9 mph - N/A   Clear
2:15 PM 26.6 °F 19.1 °F 14.0 °F 59% 30.29 in 10.0 mi ENE 6.9 mph - N/A   Clear
2:35 PM 26.6 °F 18.2 °F 14.0 °F 59% 30.28 in 10.0 mi NE 8.1 mph - N/A   Clear
2:55 PM 26.6 °F 17.5 °F 14.0 °F 59% 30.26 in 10.0 mi NNE 9.2 mph - N/A   Clear
3:15 PM 26.6 °F 16.8 °F 14.0 °F 59% 30.25 in 10.0 mi NE 10.4 mph - N/A   Clear
3:35 PM 26.6 °F 17.5 °F 14.0 °F 59% 30.25 in 10.0 mi ENE 9.2 mph - N/A   Clear
3:55 PM 26.6 °F 17.5 °F 14.0 °F 59% 30.25 in 10.0 mi NE 9.2 mph - N/A   Clear
4:15 PM 24.8 °F 16.1 °F 14.0 °F 64% 30.25 in 10.0 mi NE 8.1 mph - N/A   Clear
4:35 PM 24.8 °F 17.9 °F 14.0 °F 64% 30.25 in 10.0 mi NE 5.8 mph - N/A   Clear
4:55 PM 24.8 °F 16.9 °F 14.0 °F 64% 30.25 in 10.0 mi NE 6.9 mph - N/A   Clear
5:15 PM 24.8 °F 17.9 °F 14.0 °F 64% 30.26 in 10.0 mi ENE 5.8 mph - N/A   Clear
5:35 PM 23.0 °F 13.9 °F 14.0 °F 68% 30.24 in 10.0 mi NE 8.1 mph - N/A   Clear
5:55 PM 21.2 °F 12.6 °F 14.0 °F 74% 30.24 in 10.0 mi NE 6.9 mph - N/A   Clear
6:15 PM 21.2 °F 11.7 °F 14.0 °F 74% 30.24 in 10.0 mi NNE 8.1 mph - N/A   Clear
6:35 PM 19.4 °F 10.4 °F 14.0 °F 80% 30.24 in 10.0 mi NE 6.9 mph - N/A   Clear
6:55 PM 19.4 °F 8.6 °F 14.0 °F 80% 30.22 in 10.0 mi NE 9.2 mph - N/A   Scattered Clouds
7:15 PM 21.2 °F 7.8 °F 15.8 °F 80% 30.21 in 10.0 mi East 15.0 mph - N/A   Overcast
7:35 PM 21.2 °F 9.5 °F 15.8 °F 80% 30.21 in 10.0 mi ENE 11.5 mph 18.4 mph N/A   Overcast
7:55 PM 21.2 °F 10.1 °F 17.6 °F 86% 30.22 in 10.0 mi East 10.4 mph - N/A   Overcast
8:15 PM 19.4 °F 7.9 °F 15.8 °F 86% 30.21 in 10.0 mi East 10.4 mph - N/A   Overcast
8:35 PM 19.4 °F 7.2 °F 17.6 °F 93% 30.21 in 10.0 mi ENE 11.5 mph - N/A   Overcast
8:55 PM 19.4 °F 8.6 °F 19.4 °F 100% 30.20 in 10.0 mi ENE 9.2 mph 16.1 mph N/A   Overcast
9:15 PM 19.4 °F 10.4 °F 19.4 °F 100% 30.20 in 10.0 mi East 6.9 mph - N/A   Overcast
9:35 PM 19.4 °F 8.6 °F 19.4 °F 100% 30.18 in 10.0 mi East 9.2 mph 16.1 mph N/A   Overcast
9:55 PM 19.4 °F 7.9 °F 19.4 °F 100% 30.16 in 10.0 mi East 10.4 mph 17.3 mph N/A   Overcast
10:15 PM 19.4 °F 7.2 °F 19.4 °F 100% 30.15 in 10.0 mi East 11.5 mph - N/A   Overcast
10:55 PM 19.4 °F 6.6 °F 19.4 °F 100% 30.13 in 10.0 mi East 12.7 mph 19.6 mph N/A   Overcast
11:15 PM 19.4 °F 6.0 °F 19.4 °F 100% 30.13 in 10.0 mi East 13.8 mph 18.4 mph N/A   Overcast
11:35 PM 19.4 °F 5.5 °F 19.4 °F 100% 30.12 in 10.0 mi East 15.0 mph 18.4 mph N/A   Overcast
11:55 PM 19.4 °F 6.0 °F 19.4 °F 100% 30.12 in 10.0 mi ESE 13.8 mph 19.6 mph N/A   Overcast